owner,sensor,date,latitude,longitude,relative_humidity,qcFlag 
DISL,ioos:station:DISL:KATA:1,2013-04-01T00:00:00Z,30.2583,-88.2131,89.3,1111122 
DISL,ioos:station:DISL:KATA:1,2013-04-01T00:30:00Z,30.2583,-88.2131,84.1,1111122 
DISL,ioos:station:DISL:KATA:1,2013-04-01T01:00:00Z,30.2583,-88.2131,85.4,1111122 
DISL,ioos:station:DISL:KATA:1,2013-04-01T01:30:00Z,30.2583,-88.2131,84.7,1111122 
DISL,ioos:station:DISL:KATA:1,2013-04-01T02:00:00Z,30.2583,-88.2131,82.3,1111122 
DISL,ioos:station:DISL:KATA:1,2013-04-01T02:30:00Z,30.2583,-88.2131,79.51,1111122 
DISL,ioos:station:DISL:KATA:1,2013-04-01T03:00:00Z,30.2583,-88.2131,81.7,1111122 
DISL,ioos:station:DISL:KATA:1,2013-04-01T03:30:00Z,30.2583,-88.2131,80.5,1111122 
DISL,ioos:station:DISL:KATA:1,2013-04-01T04:00:00Z,30.2583,-88.2131,78.7,1111122 
DISL,ioos:station:DISL:KATA:1,2013-04-01T04:30:00Z,30.2583,-88.2131,83.3,1111122 
DISL,ioos:station:DISL:KATA:1,2013-04-01T05:00:00Z,30.2583,-88.2131,84.4,1111122 
DISL,ioos:station:DISL:KATA:1,2013-04-01T05:30:00Z,30.2583,-88.2131,86.5,1111122 
DISL,ioos:station:DISL:KATA:1,2013-04-01T06:00:00Z,30.2583,-88.2131,84.9,1111122 
DISL,ioos:station:DISL:KATA:1,2013-04-01T06:30:00Z,30.2583,-88.2131,89.3,1111122 
DISL,ioos:station:DISL:KATA:1,2013-04-01T07:00:00Z,30.2583,-88.2131,92.4,1111122 
DISL,ioos:station:DISL:KATA:1,2013-04-01T07:30:00Z,30.2583,-88.2131,93.8,1111122 
DISL,ioos:station:DISL:KATA:1,2013-04-01T08:00:00Z,30.2583,-88.2131,93.1,1111122 
DISL,ioos:station:DISL:KATA:1,2013-04-01T08:30:00Z,30.2583,-88.2131,92.7,1111122 
DISL,ioos:station:DISL:KATA:1,2013-04-01T09:00:00Z,30.2583,-88.2131,91.2,1111122 
DISL,ioos:station:DISL:KATA:1,2013-04-01T09:30:00Z,30.2583,-88.2131,89.6,1111122 
DISL,ioos:station:DISL:KATA:1,2013-04-01T10:00:00Z,30.2583,-88.2131,84.1,1111122 
DISL,ioos:station:DISL:KATA:1,2013-04-01T10:30:00Z,30.2583,-88.2131,86.2,1111122 
DISL,ioos:station:DISL:KATA:1,2013-04-01T11:00:00Z,30.2583,-88.2131,85.7,1111122 
DISL,ioos:station:DISL:KATA:1,2013-04-01T11:30:00Z,30.2583,-88.2131,84.4,1111122 
DISL,ioos:station:DISL:KATA:1,2013-04-01T12:00:00Z,30.2583,-88.2131,82.2,1111122 
DISL,ioos:station:DISL:KATA:1,2013-04-01T12:30:00Z,30.2583,-88.2131,83.5,1111122 
DISL,ioos:station:DISL:KATA:1,2013-04-01T13:00:00Z,30.2583,-88.2131,84.4,1111122 
DISL,ioos:station:DISL:KATA:1,2013-04-01T13:30:00Z,30.2583,-88.2131,87.4,1111122 
DISL,ioos:station:DISL:KATA:1,2013-04-01T14:00:00Z,30.2583,-88.2131,92.0,1111122 
DISL,ioos:station:DISL:KATA:1,2013-04-01T14:30:00Z,30.2583,-88.2131,92.1,1111122 
DISL,ioos:station:DISL:KATA:1,2013-04-01T15:00:00Z,30.2583,-88.2131,91.1,1111122 
DISL,ioos:station:DISL:KATA:1,2013-04-01T15:30:00Z,30.2583,-88.2131,89.9,1111122 
DISL,ioos:station:DISL:KATA:1,2013-04-01T16:00:00Z,30.2583,-88.2131,87.6,1111122 
DISL,ioos:station:DISL:KATA:1,2013-04-01T16:30:00Z,30.2583,-88.2131,87.7,1111122 
DISL,ioos:station:DISL:KATA:1,2013-04-01T17:00:00Z,30.2583,-88.2131,84.0,1111122 
DISL,ioos:station:DISL:KATA:1,2013-04-01T17:30:00Z,30.2583,-88.2131,79.6,1111122 
DISL,ioos:station:DISL:KATA:1,2013-04-01T18:00:00Z,30.2583,-88.2131,76.51,1111122 
DISL,ioos:station:DISL:KATA:1,2013-04-01T18:30:00Z,30.2583,-88.2131,73.62,1111122 
DISL,ioos:station:DISL:KATA:1,2013-04-01T19:00:00Z,30.2583,-88.2131,71.11,1111122 
DISL,ioos:station:DISL:KATA:1,2013-04-01T19:30:00Z,30.2583,-88.2131,68.06,1111122 
DISL,ioos:station:DISL:KATA:1,2013-04-01T20:00:00Z,30.2583,-88.2131,74.57,1111122 
DISL,ioos:station:DISL:KATA:1,2013-04-01T20:30:00Z,30.2583,-88.2131,77.04,1111122 
DISL,ioos:station:DISL:KATA:1,2013-04-01T21:00:00Z,30.2583,-88.2131,76.09,1111122 
DISL,ioos:station:DISL:KATA:1,2013-04-01T21:30:00Z,30.2583,-88.2131,74.33,1111122 
DISL,ioos:station:DISL:KATA:1,2013-04-01T22:00:00Z,30.2583,-88.2131,73.08,1111122 
DISL,ioos:station:DISL:KATA:1,2013-04-01T22:30:00Z,30.2583,-88.2131,72.7,1111122 
DISL,ioos:station:DISL:KATA:1,2013-04-01T23:00:00Z,30.2583,-88.2131,71.04,1111122 
DISL,ioos:station:DISL:KATA:1,2013-04-01T23:30:00Z,30.2583,-88.2131,70.46,1111122 
DISL,ioos:station:DISL:KATA:1,2013-04-02T00:00:00Z,30.2583,-88.2131,73.75,1111122 
DISL,ioos:station:DISL:KATA:1,2013-04-02T00:30:00Z,30.2583,-88.2131,75.62,1111122 
DISL,ioos:station:DISL:KATA:1,2013-04-02T01:00:00Z,30.2583,-88.2131,74.38,1111122 
DISL,ioos:station:DISL:KATA:1,2013-04-02T01:30:00Z,30.2583,-88.2131,73.67,1111122 
DISL,ioos:station:DISL:KATA:1,2013-04-02T02:00:00Z,30.2583,-88.2131,62.99,1111122 
DISL,ioos:station:DISL:KATA:1,2013-04-02T02:30:00Z,30.2583,-88.2131,64.65,1111122 
DISL,ioos:station:DISL:KATA:1,2013-04-02T03:00:00Z,30.2583,-88.2131,71.3,1111122 
DISL,ioos:station:DISL:KATA:1,2013-04-02T03:30:00Z,30.2583,-88.2131,74.15,1111122 
DISL,ioos:station:DISL:KATA:1,2013-04-02T04:00:00Z,30.2583,-88.2131,76.93,1111122 
DISL,ioos:station:DISL:KATA:1,2013-04-02T04:30:00Z,30.2583,-88.2131,74.49,1111122 
DISL,ioos:station:DISL:KATA:1,2013-04-02T05:00:00Z,30.2583,-88.2131,76.12,1111122 
DISL,ioos:station:DISL:KATA:1,2013-04-02T05:30:00Z,30.2583,-88.2131,77.68,1111122 
DISL,ioos:station:DISL:KATA:1,2013-04-02T06:00:00Z,30.2583,-88.2131,79.31,1111122 
DISL,ioos:station:DISL:KATA:1,2013-04-02T06:30:00Z,30.2583,-88.2131,75.68,1111122 
DISL,ioos:station:DISL:KATA:1,2013-04-02T07:00:00Z,30.2583,-88.2131,85.1,1111122 
DISL,ioos:station:DISL:KATA:1,2013-04-02T07:30:00Z,30.2583,-88.2131,87.8,1111122 
DISL,ioos:station:DISL:KATA:1,2013-04-02T08:00:00Z,30.2583,-88.2131,91.2,1111122 
DISL,ioos:station:DISL:KATA:1,2013-04-02T08:30:00Z,30.2583,-88.2131,92.1,1111122 
DISL,ioos:station:DISL:KATA:1,2013-04-02T09:00:00Z,30.2583,-88.2131,91.1,1111122 
DISL,ioos:station:DISL:KATA:1,2013-04-02T09:30:00Z,30.2583,-88.2131,90.7,1111122 
DISL,ioos:station:DISL:KATA:1,2013-04-02T10:00:00Z,30.2583,-88.2131,92.0,1111122 
DISL,ioos:station:DISL:KATA:1,2013-04-02T10:30:00Z,30.2583,-88.2131,92.6,1111122 
DISL,ioos:station:DISL:KATA:1,2013-04-02T11:00:00Z,30.2583,-88.2131,92.9,1111122 
DISL,ioos:station:DISL:KATA:1,2013-04-02T11:30:00Z,30.2583,-88.2131,87.3,1111122 
DISL,ioos:station:DISL:KATA:1,2013-04-02T12:00:00Z,30.2583,-88.2131,87.6,1111122 
DISL,ioos:station:DISL:KATA:1,2013-04-02T12:30:00Z,30.2583,-88.2131,84.2,1111122 
DISL,ioos:station:DISL:KATA:1,2013-04-02T13:00:00Z,30.2583,-88.2131,83.3,1111122 
DISL,ioos:station:DISL:KATA:1,2013-04-02T13:30:00Z,30.2583,-88.2131,75.85,1111122 
DISL,ioos:station:DISL:KATA:1,2013-04-02T14:00:00Z,30.2583,-88.2131,74.12,1111122 
DISL,ioos:station:DISL:KATA:1,2013-04-02T14:30:00Z,30.2583,-88.2131,57.66,1111122 
DISL,ioos:station:DISL:KATA:1,2013-04-02T15:00:00Z,30.2583,-88.2131,62.36,1111122 
DISL,ioos:station:DISL:KATA:1,2013-04-02T15:30:00Z,30.2583,-88.2131,63.48,1111122 
DISL,ioos:station:DISL:KATA:1,2013-04-02T16:00:00Z,30.2583,-88.2131,64.16,1111122 
DISL,ioos:station:DISL:KATA:1,2013-04-02T16:30:00Z,30.2583,-88.2131,62.53,1111122 
DISL,ioos:station:DISL:KATA:1,2013-04-02T17:00:00Z,30.2583,-88.2131,64.06,1111122 
DISL,ioos:station:DISL:KATA:1,2013-04-02T17:30:00Z,30.2583,-88.2131,67.01,1111122 
DISL,ioos:station:DISL:KATA:1,2013-04-02T18:00:00Z,30.2583,-88.2131,67.41,1111122 
DISL,ioos:station:DISL:KATA:1,2013-04-02T18:30:00Z,30.2583,-88.2131,66.36,1111122 
DISL,ioos:station:DISL:KATA:1,2013-04-02T19:00:00Z,30.2583,-88.2131,71.72,1111122 
DISL,ioos:station:DISL:KATA:1,2013-04-02T19:30:00Z,30.2583,-88.2131,70.6,1111122 
DISL,ioos:station:DISL:KATA:1,2013-04-02T20:00:00Z,30.2583,-88.2131,70.57,1111122 
DISL,ioos:station:DISL:KATA:1,2013-04-02T20:30:00Z,30.2583,-88.2131,69.24,1111122 
DISL,ioos:station:DISL:KATA:1,2013-04-02T21:00:00Z,30.2583,-88.2131,69.75,1111122 
DISL,ioos:station:DISL:KATA:1,2013-04-02T21:30:00Z,30.2583,-88.2131,71.31,1111122 
DISL,ioos:station:DISL:KATA:1,2013-04-02T22:00:00Z,30.2583,-88.2131,69.38,1111122 
DISL,ioos:station:DISL:KATA:1,2013-04-02T22:30:00Z,30.2583,-88.2131,71.14,1111122 
DISL,ioos:station:DISL:KATA:1,2013-04-02T23:00:00Z,30.2583,-88.2131,74.23,1111122 
DISL,ioos:station:DISL:KATA:1,2013-04-02T23:30:00Z,30.2583,-88.2131,76.2,1111122 
DISL,ioos:station:DISL:KATA:1,2013-04-03T00:00:00Z,30.2583,-88.2131,76.74,1111122 
DISL,ioos:station:DISL:KATA:1,2013-04-03T00:30:00Z,30.2583,-88.2131,76.17,1111122 
DISL,ioos:station:DISL:KATA:1,2013-04-03T01:00:00Z,30.2583,-88.2131,77.9,1111122 
DISL,ioos:station:DISL:KATA:1,2013-04-03T01:30:00Z,30.2583,-88.2131,75.5,1111122 
DISL,ioos:station:DISL:KATA:1,2013-04-03T02:00:00Z,30.2583,-88.2131,75.97,1111122 
DISL,ioos:station:DISL:KATA:1,2013-04-03T02:30:00Z,30.2583,-88.2131,77.5,1111122 
DISL,ioos:station:DISL:KATA:1,2013-04-03T03:00:00Z,30.2583,-88.2131,79.26,1111122 
DISL,ioos:station:DISL:KATA:1,2013-04-03T03:30:00Z,30.2583,-88.2131,79.43,1111122 
DISL,ioos:station:DISL:KATA:1,2013-04-03T04:00:00Z,30.2583,-88.2131,81.0,1111122 
DISL,ioos:station:DISL:KATA:1,2013-04-03T04:30:00Z,30.2583,-88.2131,82.1,1111122 
DISL,ioos:station:DISL:KATA:1,2013-04-03T05:00:00Z,30.2583,-88.2131,83.2,1111122 
DISL,ioos:station:DISL:KATA:1,2013-04-03T05:30:00Z,30.2583,-88.2131,82.6,1111122 
DISL,ioos:station:DISL:KATA:1,2013-04-03T06:00:00Z,30.2583,-88.2131,83.0,1111122 
DISL,ioos:station:DISL:KATA:1,2013-04-03T06:30:00Z,30.2583,-88.2131,83.6,1111122 
DISL,ioos:station:DISL:KATA:1,2013-04-03T07:00:00Z,30.2583,-88.2131,82.0,1111122 
DISL,ioos:station:DISL:KATA:1,2013-04-03T07:30:00Z,30.2583,-88.2131,84.4,1111122 
DISL,ioos:station:DISL:KATA:1,2013-04-03T08:00:00Z,30.2583,-88.2131,83.2,1111122 
DISL,ioos:station:DISL:KATA:1,2013-04-03T08:30:00Z,30.2583,-88.2131,85.5,1111122 
DISL,ioos:station:DISL:KATA:1,2013-04-03T09:00:00Z,30.2583,-88.2131,87.1,1111122 
DISL,ioos:station:DISL:KATA:1,2013-04-03T09:30:00Z,30.2583,-88.2131,89.1,1111122 
DISL,ioos:station:DISL:KATA:1,2013-04-03T10:00:00Z,30.2583,-88.2131,89.4,1111122 
DISL,ioos:station:DISL:KATA:1,2013-04-03T10:30:00Z,30.2583,-88.2131,90.9,1111122 
DISL,ioos:station:DISL:KATA:1,2013-04-03T11:00:00Z,30.2583,-88.2131,92.4,1111122 
DISL,ioos:station:DISL:KATA:1,2013-04-03T11:30:00Z,30.2583,-88.2131,93.7,1111122 
DISL,ioos:station:DISL:KATA:1,2013-04-03T12:00:00Z,30.2583,-88.2131,93.8,1111122 
DISL,ioos:station:DISL:KATA:1,2013-04-03T12:30:00Z,30.2583,-88.2131,93.3,1111122 
DISL,ioos:station:DISL:KATA:1,2013-04-03T13:00:00Z,30.2583,-88.2131,91.7,1111122 
DISL,ioos:station:DISL:KATA:1,2013-04-03T13:30:00Z,30.2583,-88.2131,91.5,1111122 
DISL,ioos:station:DISL:KATA:1,2013-04-03T14:00:00Z,30.2583,-88.2131,91.1,1111122 
DISL,ioos:station:DISL:KATA:1,2013-04-03T14:30:00Z,30.2583,-88.2131,91.7,1111122 
DISL,ioos:station:DISL:KATA:1,2013-04-03T15:00:00Z,30.2583,-88.2131,91.4,1111122 
DISL,ioos:station:DISL:KATA:1,2013-04-03T15:30:00Z,30.2583,-88.2131,92.0,1111122 
DISL,ioos:station:DISL:KATA:1,2013-04-03T16:00:00Z,30.2583,-88.2131,92.3,1111122 
DISL,ioos:station:DISL:KATA:1,2013-04-03T16:30:00Z,30.2583,-88.2131,92.6,1111122 
DISL,ioos:station:DISL:KATA:1,2013-04-03T17:00:00Z,30.2583,-88.2131,93.4,1111122 
DISL,ioos:station:DISL:KATA:1,2013-04-03T17:30:00Z,30.2583,-88.2131,93.9,1111122 
DISL,ioos:station:DISL:KATA:1,2013-04-03T18:00:00Z,30.2583,-88.2131,94.3,1111122 
DISL,ioos:station:DISL:KATA:1,2013-04-03T18:30:00Z,30.2583,-88.2131,94.8,1111122 
DISL,ioos:station:DISL:KATA:1,2013-04-03T19:00:00Z,30.2583,-88.2131,91.1,1111122 
DISL,ioos:station:DISL:KATA:1,2013-04-03T19:30:00Z,30.2583,-88.2131,87.2,1111122 
DISL,ioos:station:DISL:KATA:1,2013-04-03T20:00:00Z,30.2583,-88.2131,88.8,1111122 
DISL,ioos:station:DISL:KATA:1,2013-04-03T20:30:00Z,30.2583,-88.2131,87.8,1111122 
DISL,ioos:station:DISL:KATA:1,2013-04-03T21:00:00Z,30.2583,-88.2131,87.8,1111122 
DISL,ioos:station:DISL:KATA:1,2013-04-03T21:30:00Z,30.2583,-88.2131,86.6,1111122 
DISL,ioos:station:DISL:KATA:1,2013-04-03T22:00:00Z,30.2583,-88.2131,85.8,1111122 
DISL,ioos:station:DISL:KATA:1,2013-04-03T22:30:00Z,30.2583,-88.2131,85.8,1111122 
DISL,ioos:station:DISL:KATA:1,2013-04-03T23:00:00Z,30.2583,-88.2131,83.1,1111122 
DISL,ioos:station:DISL:KATA:1,2013-04-03T23:30:00Z,30.2583,-88.2131,82.2,1111122 
DISL,ioos:station:DISL:KATA:1,2013-04-04T00:00:00Z,30.2583,-88.2131,82.5,1111122 
DISL,ioos:station:DISL:KATA:1,2013-04-04T00:30:00Z,30.2583,-88.2131,82.7,1111122 
DISL,ioos:station:DISL:KATA:1,2013-04-04T01:00:00Z,30.2583,-88.2131,81.5,1111122 
DISL,ioos:station:DISL:KATA:1,2013-04-04T01:30:00Z,30.2583,-88.2131,82.4,1111122 
DISL,ioos:station:DISL:KATA:1,2013-04-04T02:00:00Z,30.2583,-88.2131,82.8,1111122 
DISL,ioos:station:DISL:KATA:1,2013-04-04T02:30:00Z,30.2583,-88.2131,82.5,1111122 
DISL,ioos:station:DISL:KATA:1,2013-04-04T03:00:00Z,30.2583,-88.2131,84.9,1111122 
DISL,ioos:station:DISL:KATA:1,2013-04-04T03:30:00Z,30.2583,-88.2131,83.7,1111122 
DISL,ioos:station:DISL:KATA:1,2013-04-04T04:00:00Z,30.2583,-88.2131,83.0,1111122 
DISL,ioos:station:DISL:KATA:1,2013-04-04T04:30:00Z,30.2583,-88.2131,84.6,1111122 
DISL,ioos:station:DISL:KATA:1,2013-04-04T05:00:00Z,30.2583,-88.2131,85.6,1111122 
DISL,ioos:station:DISL:KATA:1,2013-04-04T05:30:00Z,30.2583,-88.2131,86.1,1111122 
DISL,ioos:station:DISL:KATA:1,2013-04-04T06:00:00Z,30.2583,-88.2131,86.8,1111122 
DISL,ioos:station:DISL:KATA:1,2013-04-04T06:30:00Z,30.2583,-88.2131,87.6,1111122 
DISL,ioos:station:DISL:KATA:1,2013-04-04T07:00:00Z,30.2583,-88.2131,86.4,1111122 
DISL,ioos:station:DISL:KATA:1,2013-04-04T07:30:00Z,30.2583,-88.2131,86.7,1111122 
DISL,ioos:station:DISL:KATA:1,2013-04-04T08:00:00Z,30.2583,-88.2131,88.5,1111122 
DISL,ioos:station:DISL:KATA:1,2013-04-04T08:30:00Z,30.2583,-88.2131,89.3,1111122 
DISL,ioos:station:DISL:KATA:1,2013-04-04T09:00:00Z,30.2583,-88.2131,88.8,1111122 
DISL,ioos:station:DISL:KATA:1,2013-04-04T09:30:00Z,30.2583,-88.2131,89.1,1111122 
DISL,ioos:station:DISL:KATA:1,2013-04-04T10:00:00Z,30.2583,-88.2131,89.5,1111122 
DISL,ioos:station:DISL:KATA:1,2013-04-04T10:30:00Z,30.2583,-88.2131,90.1,1111122 
DISL,ioos:station:DISL:KATA:1,2013-04-04T11:00:00Z,30.2583,-88.2131,89.3,1111122 
DISL,ioos:station:DISL:KATA:1,2013-04-04T11:30:00Z,30.2583,-88.2131,89.6,1111122 
DISL,ioos:station:DISL:KATA:1,2013-04-04T12:00:00Z,30.2583,-88.2131,89.9,1111122 
DISL,ioos:station:DISL:KATA:1,2013-04-04T12:30:00Z,30.2583,-88.2131,91.5,1111122 
DISL,ioos:station:DISL:KATA:1,2013-04-04T13:00:00Z,30.2583,-88.2131,94.1,1111122 
DISL,ioos:station:DISL:KATA:1,2013-04-04T13:30:00Z,30.2583,-88.2131,94.2,1111122 
DISL,ioos:station:DISL:KATA:1,2013-04-04T14:00:00Z,30.2583,-88.2131,93.8,1111122 
DISL,ioos:station:DISL:KATA:1,2013-04-04T14:30:00Z,30.2583,-88.2131,93.4,1111122 
DISL,ioos:station:DISL:KATA:1,2013-04-04T15:00:00Z,30.2583,-88.2131,92.6,1111122 
DISL,ioos:station:DISL:KATA:1,2013-04-04T15:30:00Z,30.2583,-88.2131,91.0,1111122 
DISL,ioos:station:DISL:KATA:1,2013-04-04T16:00:00Z,30.2583,-88.2131,90.1,1111122 
DISL,ioos:station:DISL:KATA:1,2013-04-04T16:30:00Z,30.2583,-88.2131,89.0,1111122 
DISL,ioos:station:DISL:KATA:1,2013-04-04T17:00:00Z,30.2583,-88.2131,88.5,1111122 
DISL,ioos:station:DISL:KATA:1,2013-04-04T17:30:00Z,30.2583,-88.2131,88.7,1111122 
DISL,ioos:station:DISL:KATA:1,2013-04-04T18:00:00Z,30.2583,-88.2131,89.6,1111122 
DISL,ioos:station:DISL:KATA:1,2013-04-04T18:30:00Z,30.2583,-88.2131,87.0,1111122 
DISL,ioos:station:DISL:KATA:1,2013-04-04T19:00:00Z,30.2583,-88.2131,85.2,1111122 
DISL,ioos:station:DISL:KATA:1,2013-04-04T19:30:00Z,30.2583,-88.2131,79.44,1111122 
DISL,ioos:station:DISL:KATA:1,2013-04-04T20:00:00Z,30.2583,-88.2131,81.1,1111122 
DISL,ioos:station:DISL:KATA:1,2013-04-04T20:30:00Z,30.2583,-88.2131,80.8,1111122 
DISL,ioos:station:DISL:KATA:1,2013-04-04T21:00:00Z,30.2583,-88.2131,79.41,1111122 
DISL,ioos:station:DISL:KATA:1,2013-04-04T21:30:00Z,30.2583,-88.2131,81.3,1111122 
DISL,ioos:station:DISL:KATA:1,2013-04-04T22:00:00Z,30.2583,-88.2131,79.64,1111122 
DISL,ioos:station:DISL:KATA:1,2013-04-04T22:30:00Z,30.2583,-88.2131,77.51,1111122 
DISL,ioos:station:DISL:KATA:1,2013-04-04T23:00:00Z,30.2583,-88.2131,76.25,1111122 
DISL,ioos:station:DISL:KATA:1,2013-04-04T23:30:00Z,30.2583,-88.2131,75.47,1111122 
DISL,ioos:station:DISL:KATA:1,2013-04-05T00:00:00Z,30.2583,-88.2131,75.27,1111122 
DISL,ioos:station:DISL:KATA:1,2013-04-05T00:30:00Z,30.2583,-88.2131,75.54,1111122 
DISL,ioos:station:DISL:KATA:1,2013-04-05T01:00:00Z,30.2583,-88.2131,76.26,1111122 
DISL,ioos:station:DISL:KATA:1,2013-04-05T01:30:00Z,30.2583,-88.2131,79.14,1111122 
DISL,ioos:station:DISL:KATA:1,2013-04-05T02:00:00Z,30.2583,-88.2131,76.7,1111122 
DISL,ioos:station:DISL:KATA:1,2013-04-05T02:30:00Z,30.2583,-88.2131,79.52,1111122 
DISL,ioos:station:DISL:KATA:1,2013-04-05T03:00:00Z,30.2583,-88.2131,79.28,1111122 
DISL,ioos:station:DISL:KATA:1,2013-04-05T03:30:00Z,30.2583,-88.2131,84.1,1111122 
DISL,ioos:station:DISL:KATA:1,2013-04-05T04:00:00Z,30.2583,-88.2131,84.4,1111122 
DISL,ioos:station:DISL:KATA:1,2013-04-05T04:30:00Z,30.2583,-88.2131,80.6,1111122 
DISL,ioos:station:DISL:KATA:1,2013-04-05T05:00:00Z,30.2583,-88.2131,81.7,1111122 
DISL,ioos:station:DISL:KATA:1,2013-04-05T05:30:00Z,30.2583,-88.2131,81.2,1111122 
DISL,ioos:station:DISL:KATA:1,2013-04-05T06:00:00Z,30.2583,-88.2131,80.3,1111122 
DISL,ioos:station:DISL:KATA:1,2013-04-05T06:30:00Z,30.2583,-88.2131,84.2,1111122 
DISL,ioos:station:DISL:KATA:1,2013-04-05T07:00:00Z,30.2583,-88.2131,82.5,1111122 
DISL,ioos:station:DISL:KATA:1,2013-04-05T07:30:00Z,30.2583,-88.2131,83.1,1111122 
DISL,ioos:station:DISL:KATA:1,2013-04-05T08:00:00Z,30.2583,-88.2131,84.0,1111122 
DISL,ioos:station:DISL:KATA:1,2013-04-05T08:30:00Z,30.2583,-88.2131,81.7,1111122 
DISL,ioos:station:DISL:KATA:1,2013-04-05T09:00:00Z,30.2583,-88.2131,79.89,1111122 
DISL,ioos:station:DISL:KATA:1,2013-04-05T09:30:00Z,30.2583,-88.2131,79.77,1111122 
DISL,ioos:station:DISL:KATA:1,2013-04-05T10:00:00Z,30.2583,-88.2131,79.53,1111122 
DISL,ioos:station:DISL:KATA:1,2013-04-05T10:30:00Z,30.2583,-88.2131,77.53,1111122 
DISL,ioos:station:DISL:KATA:1,2013-04-05T11:00:00Z,30.2583,-88.2131,78.85,1111122 
DISL,ioos:station:DISL:KATA:1,2013-04-05T11:30:00Z,30.2583,-88.2131,81.3,1111122 
DISL,ioos:station:DISL:KATA:1,2013-04-05T12:00:00Z,30.2583,-88.2131,84.0,1111122 
DISL,ioos:station:DISL:KATA:1,2013-04-05T12:30:00Z,30.2583,-88.2131,80.1,1111122 
DISL,ioos:station:DISL:KATA:1,2013-04-05T13:00:00Z,30.2583,-88.2131,82.2,1111122 
DISL,ioos:station:DISL:KATA:1,2013-04-05T13:30:00Z,30.2583,-88.2131,82.3,1111122 
DISL,ioos:station:DISL:KATA:1,2013-04-05T14:00:00Z,30.2583,-88.2131,82.3,1111122 
DISL,ioos:station:DISL:KATA:1,2013-04-05T14:30:00Z,30.2583,-88.2131,82.8,1111122 
DISL,ioos:station:DISL:KATA:1,2013-04-05T15:00:00Z,30.2583,-88.2131,79.4,1111122 
DISL,ioos:station:DISL:KATA:1,2013-04-05T15:30:00Z,30.2583,-88.2131,80.3,1111122 
DISL,ioos:station:DISL:KATA:1,2013-04-05T16:00:00Z,30.2583,-88.2131,79.55,1111122 
DISL,ioos:station:DISL:KATA:1,2013-04-05T16:30:00Z,30.2583,-88.2131,78.94,1111122 
DISL,ioos:station:DISL:KATA:1,2013-04-05T17:00:00Z,30.2583,-88.2131,79.76,1111122 
DISL,ioos:station:DISL:KATA:1,2013-04-05T17:30:00Z,30.2583,-88.2131,73.61,1111122 
DISL,ioos:station:DISL:KATA:1,2013-04-05T18:00:00Z,30.2583,-88.2131,71.43,1111122 
DISL,ioos:station:DISL:KATA:1,2013-04-05T18:30:00Z,30.2583,-88.2131,68.68,1111122 
DISL,ioos:station:DISL:KATA:1,2013-04-05T19:00:00Z,30.2583,-88.2131,63.45,1111122 
DISL,ioos:station:DISL:KATA:1,2013-04-05T19:30:00Z,30.2583,-88.2131,60.42,1111122 
DISL,ioos:station:DISL:KATA:1,2013-04-05T20:00:00Z,30.2583,-88.2131,60.82,1111122 
DISL,ioos:station:DISL:KATA:1,2013-04-05T20:30:00Z,30.2583,-88.2131,58.45,1111122 
DISL,ioos:station:DISL:KATA:1,2013-04-05T21:00:00Z,30.2583,-88.2131,59.63,1111122 
DISL,ioos:station:DISL:KATA:1,2013-04-05T21:30:00Z,30.2583,-88.2131,58.89,1111122 
DISL,ioos:station:DISL:KATA:1,2013-04-05T22:00:00Z,30.2583,-88.2131,59.57,1111122 
DISL,ioos:station:DISL:KATA:1,2013-04-05T22:30:00Z,30.2583,-88.2131,58.34,1111122 
DISL,ioos:station:DISL:KATA:1,2013-04-05T23:00:00Z,30.2583,-88.2131,55.32,1111122 
DISL,ioos:station:DISL:KATA:1,2013-04-05T23:30:00Z,30.2583,-88.2131,54.26,1111122 
DISL,ioos:station:DISL:KATA:1,2013-04-06T00:00:00Z,30.2583,-88.2131,58.3,1111122 
DISL,ioos:station:DISL:KATA:1,2013-04-06T00:30:00Z,30.2583,-88.2131,58.95,1111122 
DISL,ioos:station:DISL:KATA:1,2013-04-06T01:00:00Z,30.2583,-88.2131,62.79,1111122 
DISL,ioos:station:DISL:KATA:1,2013-04-06T01:30:00Z,30.2583,-88.2131,63.4,1111122 
DISL,ioos:station:DISL:KATA:1,2013-04-06T02:00:00Z,30.2583,-88.2131,57.57,1111122 
DISL,ioos:station:DISL:KATA:1,2013-04-06T02:30:00Z,30.2583,-88.2131,62.28,1111122 
DISL,ioos:station:DISL:KATA:1,2013-04-06T03:00:00Z,30.2583,-88.2131,62.52,1111122 
DISL,ioos:station:DISL:KATA:1,2013-04-06T03:30:00Z,30.2583,-88.2131,59.85,1111122 
DISL,ioos:station:DISL:KATA:1,2013-04-06T04:00:00Z,30.2583,-88.2131,62.7,1111122 
DISL,ioos:station:DISL:KATA:1,2013-04-06T04:30:00Z,30.2583,-88.2131,60.81,1111122 
DISL,ioos:station:DISL:KATA:1,2013-04-06T05:00:00Z,30.2583,-88.2131,61.15,1111122 
DISL,ioos:station:DISL:KATA:1,2013-04-06T05:30:00Z,30.2583,-88.2131,63.12,1111122 
DISL,ioos:station:DISL:KATA:1,2013-04-06T06:00:00Z,30.2583,-88.2131,63.73,1111122 
DISL,ioos:station:DISL:KATA:1,2013-04-06T06:30:00Z,30.2583,-88.2131,59.96,1111122 
DISL,ioos:station:DISL:KATA:1,2013-04-06T07:00:00Z,30.2583,-88.2131,61.35,1111122 
DISL,ioos:station:DISL:KATA:1,2013-04-06T07:30:00Z,30.2583,-88.2131,63.59,1111122 
DISL,ioos:station:DISL:KATA:1,2013-04-06T08:00:00Z,30.2583,-88.2131,64.88,1111122 
DISL,ioos:station:DISL:KATA:1,2013-04-06T08:30:00Z,30.2583,-88.2131,66.71,1111122 
DISL,ioos:station:DISL:KATA:1,2013-04-06T09:00:00Z,30.2583,-88.2131,69.16,1111122 
DISL,ioos:station:DISL:KATA:1,2013-04-06T09:30:00Z,30.2583,-88.2131,67.81,1111122 
DISL,ioos:station:DISL:KATA:1,2013-04-06T10:00:00Z,30.2583,-88.2131,66.79,1111122 
DISL,ioos:station:DISL:KATA:1,2013-04-06T10:30:00Z,30.2583,-88.2131,68.76,1111122 
DISL,ioos:station:DISL:KATA:1,2013-04-06T11:00:00Z,30.2583,-88.2131,67.84,1111122 
DISL,ioos:station:DISL:KATA:1,2013-04-06T11:30:00Z,30.2583,-88.2131,68.39,1111122 
DISL,ioos:station:DISL:KATA:1,2013-04-06T12:00:00Z,30.2583,-88.2131,69.06,1111122 
DISL,ioos:station:DISL:KATA:1,2013-04-06T12:30:00Z,30.2583,-88.2131,66.88,1111122 
DISL,ioos:station:DISL:KATA:1,2013-04-06T13:00:00Z,30.2583,-88.2131,63.05,1111122 
DISL,ioos:station:DISL:KATA:1,2013-04-06T13:30:00Z,30.2583,-88.2131,64.76,1111122 
DISL,ioos:station:DISL:KATA:1,2013-04-06T14:00:00Z,30.2583,-88.2131,54.78,1111122 
DISL,ioos:station:DISL:KATA:1,2013-04-06T14:30:00Z,30.2583,-88.2131,55.02,1111122 
DISL,ioos:station:DISL:KATA:1,2013-04-06T15:00:00Z,30.2583,-88.2131,58.99,1111122 
DISL,ioos:station:DISL:KATA:1,2013-04-06T15:30:00Z,30.2583,-88.2131,61.19,1111122 
DISL,ioos:station:DISL:KATA:1,2013-04-06T16:00:00Z,30.2583,-88.2131,65.8,1111122 
DISL,ioos:station:DISL:KATA:1,2013-04-06T16:30:00Z,30.2583,-88.2131,69.28,1111122 
DISL,ioos:station:DISL:KATA:1,2013-04-06T17:00:00Z,30.2583,-88.2131,72.94,1111122 
DISL,ioos:station:DISL:KATA:1,2013-04-06T17:30:00Z,30.2583,-88.2131,70.23,1111122 
DISL,ioos:station:DISL:KATA:1,2013-04-06T18:00:00Z,30.2583,-88.2131,68.06,1111122 
DISL,ioos:station:DISL:KATA:1,2013-04-06T18:30:00Z,30.2583,-88.2131,69.01,1111122 
DISL,ioos:station:DISL:KATA:1,2013-04-06T19:00:00Z,30.2583,-88.2131,65.41,1111122 
DISL,ioos:station:DISL:KATA:1,2013-04-06T19:30:00Z,30.2583,-88.2131,65.14,1111122 
DISL,ioos:station:DISL:KATA:1,2013-04-06T20:00:00Z,30.2583,-88.2131,62.87,1111122 
DISL,ioos:station:DISL:KATA:1,2013-04-06T20:30:00Z,30.2583,-88.2131,63.24,1111122 
DISL,ioos:station:DISL:KATA:1,2013-04-06T21:00:00Z,30.2583,-88.2131,63.82,1111122 
DISL,ioos:station:DISL:KATA:1,2013-04-06T21:30:00Z,30.2583,-88.2131,60.26,1111122 
DISL,ioos:station:DISL:KATA:1,2013-04-06T22:00:00Z,30.2583,-88.2131,62.7,1111122 
DISL,ioos:station:DISL:KATA:1,2013-04-06T22:30:00Z,30.2583,-88.2131,62.43,1111122 
DISL,ioos:station:DISL:KATA:1,2013-04-06T23:00:00Z,30.2583,-88.2131,65.75,1111122 
DISL,ioos:station:DISL:KATA:1,2013-04-06T23:30:00Z,30.2583,-88.2131,67.93,1111122 
DISL,ioos:station:DISL:KATA:1,2013-04-07T00:00:00Z,30.2583,-88.2131,66.89,1111122 
DISL,ioos:station:DISL:KATA:1,2013-04-07T00:30:00Z,30.2583,-88.2131,63.06,1111122 